Location: West Cummington
(42.4920°N, 72.9680°W)
Time: 21:22:36
(UTC-04:00)

Cosmos 2221 - Visible Passes

Search period start: 29 May 2017 00:00
Search period end: 08 June 2017 00:00
Orbit: 593 x 618 km, 82.5° (Epoch: 29 May)

Date Brightness Start Highest point End Pass type
(mag) Time Alt. Az. Time Alt. Az. Time Alt. Az.
29 May 2.8 00:55:16 10° N 00:59:04 66° NNE 00:59:04 66° NNE visible
29 May 4.9 23:32:52 10° NE 23:34:37 12° ENE 23:35:08 12° ENE visible
30 May 3.0 01:08:22 10° NNW 01:12:00 54° NW 01:12:00 54° NW visible
30 May 4.4 23:44:44 10° NNE 23:47:54 20° ENE 23:48:06 20° ENE visible
31 May 3.7 01:21:40 10° NNW 01:24:57 33° WNW 01:24:57 33° WNW visible
31 May 3.7 23:57:15 10° NNE 00:01:04 31° ENE 00:01:04 31° ENE visible
01 Jun 4.3 01:35:13 10° NW 01:37:56 21° WNW 01:37:56 21° WNW visible
02 Jun 3.0 00:10:02 10° N 00:14:02 52° ENE 00:14:02 52° ENE visible
02 Jun 4.8 01:49:21 10° WNW 01:50:54 13° WNW 01:50:54 13° WNW visible
03 Jun 2.6 00:23:00 10° N 00:27:02 77° N 00:27:02 77° N visible
03 Jun 4.7 23:00:06 10° NE 23:02:27 14° ENE 23:03:09 14° E visible
04 Jun 3.0 00:36:09 10° NNW 00:40:01 50° WNW 00:40:01 50° WNW visible
04 Jun 4.1 23:12:16 10° NNE 23:15:43 23° ENE 23:16:10 22° E visible
05 Jun 3.8 00:49:30 10° NNW 00:53:02 30° W 00:53:02 30° W visible
05 Jun 3.4 23:24:53 10° N 23:28:54 37° ENE 23:29:11 36° E visible
06 Jun 4.5 01:03:10 10° NW 01:06:03 19° W 01:06:03 19° W visible
06 Jun 2.6 23:37:43 10° N 23:42:01 63° E 23:42:13 62° E visible
07 Jun 5.0 01:17:42 10° WNW 01:19:01 11° W 01:19:05 11° W visible
07 Jun 2.4 23:50:45 10° N 23:55:05 77° W 23:55:16 75° SW visible
